Regional Weather Roundup
Issued by NWS

Home | Current Version | Previous Version | Graphics & Text | Print | Product List | Glossary On
Versions: 1 2 3 4 5 6 7 8 9 10 11 12 13 14 15 16 17 18 19 20 21 22 23 24 25 26 27 28 29 30 31 32 33 34 35 36 37 38 39 40 41 42 43 44 45 46 47 48 49 50
000
ASUS43 KLOT 260303
RWRIL

ILLINOIS REGIONAL WEATHER ROUNDUP
NATIONAL WEATHER SERVICE CHICAGO/ROMEOVILLE IL
900 PM CST SAT FEB 25 2017

NOTE: "FAIR" INDICATES FEW OR NO CLOUDS BELOW 12,000 FEET WITH NO
SIGNIFICANT WEATHER AND/OR OBSTRUCTIONS TO VISIBILITY.

* THESE STATIONS ARE NOT UNDER NWS QUALITY CONTROL. THEY ALSO MAY NOT
  REPORT WEATHER SUCH AS PRECIPITATION OR FOG.

ILZ001-002-007-009-015-016-024-260400-
NORTHWEST ILLINOIS

CITY           SKY/WX    TMP DP  RH WIND       PRES   REMARKS
MOLINE         PTCLDY    26  16  65 W3        30.06S
STERLING*      CLOUDY    25  19  78 W10       30.06R WCI  15
$$

ILZ003-004-008-010-011-017-018-260400-
NORTH CENTRAL ILLINOIS

CITY           SKY/WX    TMP DP  RH WIND       PRES   REMARKS
ROCKFORD       CLOUDY    24  14  65 W5        30.05R WCI  18
FREEPORT*      CLOUDY    23  16  75 W6        30.04R WCI  15
ROCHELLE*      CLOUDY    25  19  76 W8        30.04S WCI  16
DE KALB*       CLOUDY    23  16  74 W7        30.04R WCI  15
PERU*          PTCLDY    26  18  69 W8        30.07R WCI  18
$$

ILZ005-006-012>014-019>023-260400-
NORTHEAST ILLINOIS

CITY           SKY/WX    TMP DP  RH WIND       PRES   REMARKS
CHICAGO-OHARE  CLOUDY    25  15  66 W9        30.01R WCI  15
CHICAGO-MIDWAY CLOUDY    26  13  57 W10       30.03R WCI  16
AURORA         CLOUDY    25  17  72 W10       30.04R WCI  15
LANSING*       CLOUDY    25  16  69 W8        30.03R WCI  16
JOLIET*        CLOUDY    26  17  66 W5        30.06R WCI  21
WAUKEGAN       CLOUDY    23  13  65 W6        29.99R WCI  16
DUPAGE AIRPORT CLOUDY    24  14  65 W12       30.02R WCI  13
KANKAKEE*      CLOUDY    26  18  72 W7        30.05R WCI  18
WHEELING       CLOUDY    24  13  62 W7        30.03R WCI  16
MORRIS*        CLOUDY    25  19  75 W8        30.04R WCI  17
ROMEOVILLE*    CLOUDY    25  18  76 NW10      30.04R WCI  15
NORTHERLY ISL    N/A     26  16  65 W12         N/A  WCI  16
$$

LMZ740>746-260400-
SOUTHERN LAKE MICHIGAN

STATION/POSITION SKY/WX   TEMP    WIND        PRES    VSBY  WAVE
                          AIR SEA DIR/SP/G                  HT/PER
                          (F)     (DEG/KT/KT) (MB)    (MI)  (FT/S)
HARRISON CRIB              27     280/ 14/ 18   N/A
BURNHAM HARBOR             26     250/  8/ 13   N/A
CALUMET HARBOR             25     270/  7/ 11 1016.1R
BURNS HARBOR               28     290/ 13/ 19 1016.9R
MICHIGAN CITY              26     260/ 15/ 17   N/A
$$

ILZ025>027-034>036-040-047-049-050-058-095>099-260400-
WEST-CENTRAL ILLINOIS

CITY           SKY/WX    TMP DP  RH WIND       PRES   REMARKS
QUINCY         CLEAR     27  14  58 S5        30.08S WCI  22
GALESBURG*     PTCLDY    23  18  78 CALM      30.07F
MACOMB*        PTCLDY    24  20  82 SW3       30.10S
JACKSONVILLE*  CLEAR     25  15  67 SW3       30.11R
PITTSFIELD*    CLEAR     27  19  72 CALM      30.11S
$$

ILZ028>032-037-038-041>044-048-051>054-059>061-260400-
CENTRAL ILLINOIS

CITY           SKY/WX    TMP DP  RH WIND       PRES   REMARKS
PONTIAC        CLOUDY    28  19  71 W10       30.07R WCI  18
BLOOMINGTON    CLEAR     26  17  68 W10       30.08R WCI  16
DECATUR        CLEAR     29  12  49 W10       30.10R WCI  20
PEORIA         PTCLDY    27  17  66 W5        30.09R WCI  22
LACON*         PTCLDY    28  18  68 W6        30.08R WCI  21
LINCOLN*       PTCLDY    29  17  59 CALM      30.10R
SPRINGFIELD    CLEAR     27  13  55 SW5       30.11R WCI  22
TAYLORVILLE    CLEAR     27  11  52 W5        30.12R WCI  21
$$

ILZ033-039-045-046-055>057-062-063-260400-
EAST-CENTRAL ILLINOIS

CITY           SKY/WX    TMP DP  RH WIND       PRES   REMARKS
CHAMPAIGN      CLEAR     24  14  65 W6        30.08R WCI  17
RANTOUL*       CLEAR     28  20  74 W8        30.07R WCI  19
MATTOON        CLEAR     26  14  60 W10       30.09R WCI  16
PARIS*         CLEAR     25  17  72 W8        30.09R WCI  16
$$

ILZ079-100>102-260400-
SOUTHWEST ILLINOIS

CITY           SKY/WX    TMP DP  RH WIND       PRES   REMARKS
ALTON          CLEAR     27  14  59 W6        30.13R WCI  20
BELLEVILLE     CLEAR     29  14  53 CALM      30.13R
CAHOKIA*       CLEAR     28  11  48 CALM      30.14R
SPARTA*        CLEAR     32  15  49 CALM      30.16R
$$

ILZ064>066-069>071-074>076-080>082-084>086-088>090-092>094-260400-
SOUTH-CENTRAL ILLINOIS

CITY           SKY/WX    TMP DP  RH WIND       PRES   REMARKS
CARBONDALE     CLEAR     33  14  45 NW3       30.15R
CAIRO*         CLEAR     34  16  48 CALM      30.15R
EFFINGHAM*     CLEAR     27  19  70 W6        30.13S WCI  21
MARION         PTCLDY    30  10  43 CALM      30.16R
MT. VERNON     CLEAR     28  17  63 CALM      30.15R
CENTRALIA*     CLEAR     31  18  59 W3        30.13R
SALEM*         CLEAR     32  15  50 NW6       30.13R WCI  26
METROPOLIS*    PTCLDY    31  19  62 CALM      30.16R
$$

ILZ067-068-072-073-078-083-087-091-260400-
SOUTHEAST ILLINOIS

CITY           SKY/WX    TMP DP  RH WIND       PRES   REMARKS
LAWRENCEVILLE  CLEAR     30  19  63 W5        30.12R WCI  25
FLORA*         CLEAR     31  17  56 W6        30.14R WCI  26
FAIRFIELD*     CLEAR     30  18  61 CALM      30.13R
HARRISBURG*    CLEAR     32  19  59 NW3       30.16R
ROBINSON*      CLEAR     26  18  69 W7        30.12R WCI  19
CARMI*         CLEAR     28  19  69 W6        30.14R WCI  21
$$

ABBREVIATIONS USED IN REMARKS
   TC - TEMPERATURE IN CELSIUS
  WCI - WIND CHILL INDEX
   HX - HEAT INDEX
  VSB - VISIBILITY
$$





USA.gov is the U.S. government's official web portal to all federal, state and local government web resources and services.